Weather in Prokhladnyy

Russia / Krasnodar Krai     44°42′52″N   40°41′56″E
temp.,
°C
wind,
m/s
gust,
m/s
humid.,
%
clouds,
%
prec.,
mm/h
press.,
hPa
HPBL,
m
16 april, fri
fri1600:00+8sse359346 0.3 101972
03:00+8se359271 0.4 101878
06:00+8se339048 0.1 101849
09:00+14se237096 0.1 1018373
12:00+17wnw336291 0.0 10171117
15:00+13nw5685100 0.6 1018444
18:00+12nne338787 0.2 1019480
21:00+11ne3594100 0.2 1019206
17 april, sat
sat1700:00+9nnw2297100 0.0 101937
03:00+10nw2399100 0.9 102094
06:00+10wnw2799100 3.0 1021419
09:00+9wnw3798100 5.7 1022448
12:00+9nw3394100 1.3 1023301
15:00+8n1196100 3.9 1023140
18:00+8e2396100 1.3 1023172
21:00+9ese2592100 1.3 1023136
18 april, sun
sun1800:00+9e2592100 0.0 1022140
03:00+7e369498 0.0 1021127
06:00+8ene4993100 0.1 1019284
09:00+10ene599284 0.3 1018402
12:00+16e4471100 0.0 1016892
15:00+13nnw2392100 1.1 1017219
18:00+14ese248832 0.1 1017248
21:00+11se2295100 0.8 101714
19 april, mon
mon1900:00+11se3494100 0.1 101761
03:00+11se3492100 0.1 101653
06:00+11ssw2287100 0.0 101629
09:00+13nne0191100 1.9 1017100
12:00+17e567892 0.4 1014441
15:00+19e577198 0.4 1012430
18:00+19e51277100 0.0 1010329
21:00+16ese61276100 0.0 1008256
20 april, tue
tue2000:00+15se51178100 0.0 1005155
03:00+17se71559100 0.0 1002204
06:00+17s3966100 0.0 1001157
09:00+16wnw4679100 0.0 1006447
12:00+17wnw6870100 0.1 1007943
15:00+11wnw71285100 1.1 1011786
18:00+10w71688100 4.3 1013862
21:00+9w378880 4.4 1016207